Weather History for Chesapeake, VA

Change the Weather History Date:

Saturday, May 4, 2013

  Actual Average (KORF) Record (KORF)
Temperature  
Mean Temperature 56 °F 63 °F  
Max Temperature 62 °F 72 °F 92 °F (1892)
Min Temperature 51 °F 54 °F 42 °F (1957)
Degree Days  
Heating Degree Days 8 4  
Month to date heating degree days 16  
Since 1 July heating degree days 3316  
Cooling Degree Days 0 2  
Month to date cooling degree days 8  
Year to date cooling degree days 52  
Growing Degree Days 6 (Base 50)    
Moisture  
Dew Point 49 °F    
Average Humidity 82    
Maximum Humidity 100    
Minimum Humidity 63    
Precipitation  
Precipitation 0.00 in 0.11 in 1.50 in (1978)
Month to date precipitation 0.42  
Year to date precipitation 14.03  
Snow  
Snow 0.00 in 0.00 in 0.00 in (2002)
Month to date snowfall 0.0  
Since 1 July snowfall 5.8  
Snow Depth -    
Sea Level Pressure  
Sea Level Pressure 30.19 in    
Wind  
Wind Speed 10 mph (NNE)    
Max Wind Speed 17 mph    
Max Gust Speed 23 mph    
Visibility 9 miles    
Events      
T = Trace of Precipitation, MM = Missing Value Source: NWS Daily Summary

Daily Weather History Graph

Daily Weather History Graph

Search for Another Location

Airport:

Trip Planner

Search our weather history database for the weather conditions in past years. The results will help you decide how hot, cold, wet, or windy it might be!

Date:

Astronomy

May. 04, 2013 Rise Set
Actual Time 6:08 AM EDT 7:56 PM EDT
Civil Twilight 5:40 AM EDT 8:24 PM EDT
Nautical Twilight 5:06 AM EDT 8:58 PM EDT
Astronomical Twilight 4:30 AM EDT 9:34 PM EDT
Moon 2:56 AM EDT (5/4) 2:59 PM EDT (5/4)
Length of Visible Light 14h 44m
Length of Day
13h 48m
Waning Crescent, 27% of the Moon is Illuminated
May 4
Waning Crescent
May 9
New
May 18
First Quarter
May 25
Full
May 31
Last Quarter

Hourly Weather History & Observations

Time (EDT) Temp. Dew Point Humidity Pressure Visibility Wind Dir Wind Speed Gust Speed Precip Events Conditions
12:15 AM 51.8 °F 46.4 °F 82% 30.26 in 10.0 mi NNE 10.4 mph - N/A   Scattered Clouds
12:35 AM 51.8 °F 46.4 °F 82% 30.25 in 10.0 mi NNE 8.1 mph - N/A   Scattered Clouds
12:55 AM 51.8 °F 46.4 °F 82% 30.24 in 10.0 mi NNE 8.1 mph - N/A   Mostly Cloudy
1:15 AM 51.8 °F 46.4 °F 82% 30.23 in 10.0 mi NNE 8.1 mph - N/A   Mostly Cloudy
1:35 AM 51.8 °F 46.4 °F 82% 30.22 in 10.0 mi NNE 10.4 mph 16.1 mph N/A   Overcast
1:55 AM 51.8 °F 46.4 °F 82% 30.21 in 10.0 mi NNE 10.4 mph - N/A   Overcast
2:15 AM 53.6 °F 46.4 °F 77% 30.21 in 10.0 mi NNE 11.5 mph - N/A   Overcast
2:55 AM 51.8 °F 48.2 °F 88% 30.20 in 10.0 mi Calm Calm - N/A   Overcast
3:15 AM 53.6 °F 48.2 °F 82% 30.20 in 10.0 mi NNE 9.2 mph - N/A   Overcast
3:35 AM 53.6 °F 48.2 °F 82% 30.20 in 10.0 mi NE 10.4 mph - N/A   Overcast
3:55 AM 51.8 °F 48.2 °F 88% 30.20 in 10.0 mi NE 9.2 mph 17.3 mph N/A   Overcast
4:15 AM 51.8 °F 48.2 °F 88% 30.20 in 10.0 mi NNE 10.4 mph - N/A   Overcast
4:35 AM 51.8 °F 48.2 °F 88% 30.20 in 10.0 mi ENE 12.7 mph - N/A   Overcast
4:55 AM 51.8 °F 48.2 °F 88% 30.20 in 10.0 mi NNE 10.4 mph - N/A   Overcast
5:15 AM 51.8 °F 48.2 °F 88% 30.21 in 10.0 mi NNE 6.9 mph - N/A   Overcast
5:35 AM 51.8 °F 50.0 °F 94% 30.21 in 4.0 mi NNE 5.8 mph - N/A   Overcast
5:55 AM 51.8 °F 51.8 °F 100% 30.21 in 7.0 mi NNE 8.1 mph - N/A   Overcast
6:15 AM 53.6 °F 51.8 °F 94% 30.21 in 10.0 mi NNE 9.2 mph - N/A   Overcast
6:35 AM 53.6 °F 50.0 °F 88% 30.21 in 10.0 mi NNE 6.9 mph 16.1 mph N/A   Overcast
6:55 AM 53.6 °F 50.0 °F 88% 30.21 in 10.0 mi NNE 10.4 mph - N/A   Overcast
7:15 AM 53.6 °F 50.0 °F 88% 30.21 in 10.0 mi NNE 10.4 mph 17.3 mph N/A   Overcast
7:35 AM 53.6 °F 50.0 °F 88% 30.21 in 10.0 mi NNE 10.4 mph 16.1 mph N/A   Overcast
7:55 AM 53.6 °F 51.8 °F 94% 30.21 in 4.0 mi NE 12.7 mph - N/A   Overcast
8:15 AM 53.6 °F 51.8 °F 94% 30.21 in 10.0 mi NE 10.4 mph 17.3 mph N/A   Overcast
8:35 AM 53.6 °F 51.8 °F 94% 30.22 in 5.0 mi NE 11.5 mph 17.3 mph N/A   Overcast
8:55 AM 53.6 °F 51.8 °F 94% 30.22 in 5.0 mi NE 13.8 mph 18.4 mph N/A   Overcast
9:15 AM 53.6 °F 51.8 °F 94% 30.22 in 1.8 mi NNE 11.5 mph 16.1 mph N/A   Overcast
9:35 AM 53.6 °F 51.8 °F 94% 30.22 in 2.5 mi NNE 10.4 mph 17.3 mph N/A   Overcast
9:55 AM 53.6 °F 51.8 °F 94% 30.22 in 4.0 mi NNE 11.5 mph 17.3 mph N/A   Overcast
10:15 AM 53.6 °F 51.8 °F 94% 30.22 in 10.0 mi NE 16.1 mph 20.7 mph N/A   Overcast
10:35 AM 53.6 °F 51.8 °F 94% 30.22 in 4.0 mi NNE 11.5 mph 19.6 mph N/A   Overcast
10:55 AM 53.6 °F 51.8 °F 94% 30.22 in 4.0 mi NNE 11.5 mph 20.7 mph N/A   Overcast
11:15 AM 53.6 °F 53.6 °F 100% 30.22 in 3.0 mi NNE 8.1 mph - N/A   Overcast
11:35 AM 53.6 °F 51.8 °F 94% 30.21 in 10.0 mi NE 13.8 mph 23.0 mph N/A   Overcast
11:55 AM 53.6 °F 51.8 °F 94% 30.20 in 7.0 mi NNE 12.7 mph 18.4 mph N/A   Overcast
12:15 PM 55.4 °F 51.8 °F 88% 30.20 in 10.0 mi NNE 12.7 mph 16.1 mph N/A   Overcast
12:35 PM 57.2 °F 51.8 °F 82% 30.19 in 10.0 mi NNE 3.5 mph 17.3 mph N/A   Overcast
12:55 PM 57.2 °F 51.8 °F 82% 30.19 in 10.0 mi NNE 10.4 mph 16.1 mph N/A   Overcast
1:15 PM 59.0 °F 51.8 °F 77% 30.19 in 10.0 mi NNE 8.1 mph 16.1 mph N/A   Overcast
1:35 PM 60.8 °F 50.0 °F 68% 30.19 in 10.0 mi NNE 10.4 mph 13.8 mph N/A   Overcast
1:55 PM 60.8 °F 50.0 °F 68% 30.18 in 10.0 mi NNE 17.3 mph 21.9 mph N/A   Overcast
2:15 PM 60.8 °F 50.0 °F 68% 30.18 in 10.0 mi NNE 11.5 mph 18.4 mph N/A   Overcast
2:35 PM 60.8 °F 50.0 °F 68% 30.18 in 10.0 mi NE 16.1 mph 20.7 mph N/A   Overcast
2:55 PM 62.6 °F 50.0 °F 63% 30.18 in 10.0 mi NE 13.8 mph 19.6 mph N/A   Overcast
3:15 PM 62.6 °F 50.0 °F 63% 30.17 in 10.0 mi NE 12.7 mph 19.6 mph N/A   Overcast
3:35 PM 62.6 °F 50.0 °F 63% 30.17 in 10.0 mi NE 16.1 mph 21.9 mph N/A   Overcast
3:55 PM 62.6 °F 51.8 °F 68% 30.17 in 10.0 mi NE 13.8 mph 20.7 mph N/A   Overcast
4:15 PM 62.6 °F 51.8 °F 68% 30.16 in 10.0 mi NE 15.0 mph - N/A   Overcast
4:35 PM 60.8 °F 50.0 °F 68% 30.16 in 10.0 mi NE 16.1 mph - N/A   Overcast
4:55 PM 60.8 °F 51.8 °F 72% 30.16 in 10.0 mi NE 16.1 mph 19.6 mph N/A   Mostly Cloudy
5:15 PM 60.8 °F 50.0 °F 68% 30.16 in 10.0 mi NE 16.1 mph - N/A   Mostly Cloudy
5:35 PM 60.8 °F 50.0 °F 68% 30.16 in 10.0 mi NE 11.5 mph 20.7 mph N/A   Mostly Cloudy
5:55 PM 60.8 °F 48.2 °F 63% 30.16 in 10.0 mi NE 17.3 mph - N/A   Mostly Cloudy
6:15 PM 59.0 °F 48.2 °F 67% 30.16 in 10.0 mi NE 12.7 mph - N/A   Scattered Clouds
6:35 PM 57.2 °F 48.2 °F 72% 30.16 in 10.0 mi NNE 10.4 mph - N/A   Scattered Clouds
6:55 PM 57.2 °F 48.2 °F 72% 30.16 in 10.0 mi NE 12.7 mph 16.1 mph N/A   Clear
7:15 PM 57.2 °F 48.2 °F 72% 30.16 in 10.0 mi NE 11.5 mph - N/A   Clear
7:35 PM 55.4 °F 48.2 °F 77% 30.16 in 10.0 mi NE 13.8 mph 21.9 mph N/A   Clear
7:55 PM 55.4 °F 48.2 °F 77% 30.16 in 10.0 mi NNE 9.2 mph - N/A   Clear
8:15 PM 53.6 °F 46.4 °F 77% 30.16 in 10.0 mi NNE 9.2 mph - N/A   Clear
8:35 PM 53.6 °F 46.4 °F 77% 30.17 in 10.0 mi NNE 9.2 mph 18.4 mph N/A   Clear
8:55 PM 53.6 °F 46.4 °F 77% 30.18 in 10.0 mi NNE 8.1 mph - N/A   Clear
9:15 PM 53.6 °F 46.4 °F 77% 30.18 in 10.0 mi NNE 6.9 mph - N/A   Clear
9:35 PM 51.8 °F 46.4 °F 82% 30.18 in 10.0 mi NNE 9.2 mph - N/A   Clear
9:55 PM 51.8 °F 46.4 °F 82% 30.18 in 10.0 mi NE 8.1 mph - N/A   Clear
10:15 PM 51.8 °F 46.4 °F 82% 30.18 in 10.0 mi NNE 5.8 mph - N/A   Clear
10:35 PM 51.8 °F 46.4 °F 82% 30.18 in 10.0 mi NNE 3.5 mph - N/A   Clear
10:55 PM 51.8 °F 46.4 °F 82% 30.18 in 10.0 mi NNE 3.5 mph - N/A   Clear
11:15 PM 51.8 °F 46.4 °F 82% 30.17 in 10.0 mi NNE 4.6 mph - N/A   Clear
11:35 PM 51.8 °F 46.4 °F 82% 30.16 in 10.0 mi NNE 4.6 mph - N/A   Clear
11:55 PM 51.8 °F 46.4 °F 82% 30.16 in 7.0 mi Calm Calm - N/A   Clear